TimeEST,TemperatureF,Dew PointF,Humidity,Sea Level PressureIn,VisibilityMPH,Wind Direction,Wind SpeedMPH,Gust SpeedMPH,PrecipitationIn,Events,Conditions,WindDirDegrees,DateUTC
12:56 AM,12.0,9.0,88,30.01,10.0,Calm,Calm,-,N/A,,Mostly Cloudy,0,2013-01-04 05:56:00
1:56 AM,9.0,7.0,92,30.01,10.0,Calm,Calm,-,N/A,,Clear,0,2013-01-04 06:56:00
2:56 AM,9.0,7.0,92,30.01,10.0,WSW,3.5,-,N/A,,Clear,250,2013-01-04 07:56:00
3:56 AM,12.0,9.0,88,29.99,10.0,SW,4.6,-,N/A,,Partly Cloudy,230,2013-01-04 08:56:00
4:56 AM,17.1,12.0,81,29.99,10.0,SW,5.8,-,N/A,,Clear,220,2013-01-04 09:56:00
5:56 AM,19.0,15.1,85,29.99,10.0,WSW,4.6,-,N/A,,Clear,240,2013-01-04 10:56:00
6:56 AM,21.9,17.1,82,29.99,10.0,WSW,6.9,-,N/A,,Clear,240,2013-01-04 11:56:00
7:56 AM,24.1,18.0,77,30.01,10.0,SW,6.9,-,N/A,,Mostly Cloudy,230,2013-01-04 12:56:00
8:56 AM,27.0,19.9,75,30.00,10.0,SW,9.2,-,N/A,,Overcast,230,2013-01-04 13:56:00
9:56 AM,30.9,21.0,67,29.99,10.0,SW,9.2,-,N/A,,Clear,230,2013-01-04 14:56:00
10:56 AM,33.1,19.9,59,29.95,10.0,SW,15.0,20.7,N/A,,Clear,220,2013-01-04 15:56:00
11:56 AM,35.1,19.9,54,29.90,10.0,WSW,17.3,28.8,N/A,,Partly Cloudy,250,2013-01-04 16:56:00
12:56 PM,35.1,21.0,57,29.87,10.0,WSW,16.1,25.3,N/A,,Partly Cloudy,240,2013-01-04 17:56:00
1:56 PM,36.0,21.0,55,29.85,10.0,WSW,13.8,24.2,N/A,,Clear,250,2013-01-04 18:56:00
2:56 PM,36.0,23.0,59,29.85,10.0,WSW,10.4,-,N/A,,Overcast,240,2013-01-04 19:56:00
3:56 PM,35.1,23.0,61,29.86,10.0,WSW,10.4,-,N/A,,Clear,240,2013-01-04 20:56:00
4:56 PM,35.1,21.9,59,29.86,10.0,WSW,6.9,-,N/A,,Clear,240,2013-01-04 21:56:00
5:56 PM,34.0,21.9,61,29.86,10.0,SW,6.9,-,N/A,,Clear,230,2013-01-04 22:56:00
6:56 PM,32.0,21.0,64,29.87,10.0,SW,6.9,-,N/A,,Clear,230,2013-01-04 23:56:00
7:56 PM,30.9,21.0,67,29.87,10.0,SW,6.9,-,N/A,,Clear,220,2013-01-05 00:56:00
8:56 PM,30.0,21.0,69,29.88,10.0,SW,6.9,-,N/A,,Scattered Clouds,230,2013-01-05 01:56:00
9:56 PM,30.0,19.9,66,29.88,10.0,WSW,3.5,-,N/A,,Partly Cloudy,240,2013-01-05 02:56:00
10:56 PM,30.9,21.0,67,29.88,10.0,SW,6.9,-,N/A,,Overcast,220,2013-01-05 03:56:00
11:56 PM,30.0,19.0,64,29.88,10.0,SW,6.9,-,N/A,,Scattered Clouds,230,2013-01-05 04:56:00